Location: Miles
(41.4492°N, 81.6087°W)
Time: 21:18:50
(UTC+00:00)

Vanguard 2 Rocket - Pass Details

Date: 21 September 2024
Orbit: 553 x 3298 km, 32.9° (Epoch: 12 October)

Event Time Altitude Azimuth Distance (km) Brightness Sun altitude
Rises 11:29:40 0° 275° (W) 5,682 10.2 2.2°
Reaches altitude 10° 11:33:41 10° 264° (W) 5,045 10.1 3.0°
Maximum altitude 11:46:06 30° 212° (SSW) 4,445 10.2 5.3°
Drops below altitude 10° 12:01:33 10° 162° (SSE) 6,241 11.5 8.2°
Sets 12:07:25 0° 152° (SSE) 7,196 12.0 9.2°
